Location: Stara Lesna
(49.1528°N, 20.2911°E)
Time: 05:11:31
(UTC+02:00)

FALCON 9 DEB - Pass Details

Date: 21 September 2019
Orbit: 431 x 445 km, 53.0° (Epoch: 19 October)

Event Time Altitude Azimuth Distance (km) Brightness Sun altitude
Exits shadow 04:52:23 20° 302° (WNW) 1,090 4.8 -15.3°
Maximum altitude 04:54:30 45° 7° (N) 620 4.1 -15.0°
Drops below altitude 10° 04:57:55 10° 81° (E) 1,571 7.3 -14.5°
Sets 05:00:06 0° 88° (E) 2,441 8.5 -14.1°
